Tracking 31027 objects as of 19-Jul-2025
HD Live streaming from Space Station
objects crossing your sky now

COSMOS 1275 DEB

Track COSMOS 1275 DEB now!
10-day predictions


NORAD ID: 13483
Int'l Code: 1981-053GF
Perigee: 822.5 km
Apogee: 836.6 km
Inclination: 82.9 °
Period: 101.3 minutes
Semi major axis: 7200 km
RCS: 0.0105 m2 (small)
Launch date: June 4, 1981
Source: Commonwealth of Independent States (former USSR) (CIS)
Launch site: PLESETSK MISSILE AND SPACE COMPLEX (PKMTR)

Note: This is SATELLITE DEBRIS
Your satellite tracking list
COSMOS 2251 DEB
Track 1 satellite(s)




NASA's NSSDC Master Catalog

Two Line Element Set (TLE):
1 13483U 81053GD  25199.50811545  .00001698  00000-0  77772-3 0  9998
2 13483  82.9234 353.8784 0009819  26.8848  37.6260 14.20867973199998
Source of the keplerian elements: AFSPC